Location: Unspecified
(32.5099°N, 80.0190°W)
Time: 07:01:38
(UTC-04:00)

CZ-3 Stage 3 - Visible Passes

Search period start: 26 May 2017 00:00
Search period end: 05 June 2017 00:00
Orbit: 406 x 34792 km, 30.8° (Epoch: 25 May)

Date Brightness Start Highest point End Pass type
(mag) Time Alt. Az. Time Alt. Az. Time Alt. Az.
26 May 6.2 13:56:54 10° S 21:05:06 26° ESE 22:49:53 10° ESE visible
27 May 9.8 01:23:54 10° WNW 02:26:58 17° WNW 04:10:19 10° WNW visible
27 May 8.1 21:04:27 10° W 22:48:02 67° WSW 05:37:32 10° WSW visible
28 May 7.7 17:21:21 10° WSW 22:44:14 65° SE 02:44:06 10° SSE visible
29 May 6.1 13:47:29 10° S 20:55:10 26° ESE 22:39:52 10° ESE visible
30 May 9.8 01:14:30 10° WNW 02:16:23 17° WNW 03:57:24 10° WNW visible
30 May 8.1 20:55:09 10° W 22:37:05 66° WSW 05:24:13 10° WSW visible
31 May 7.7 17:12:06 10° WSW 22:31:27 64° SE 02:34:20 10° SSE visible
01 Jun 6.1 13:38:03 10° S 20:45:12 25° ESE 22:24:44 12° ESE visible
02 Jun 9.9 01:05:07 10° WNW 02:05:47 17° WNW 03:44:23 10° W visible
02 Jun 8.2 20:45:49 10° W 22:26:06 66° WSW 05:09:32 10° WSW daylight
03 Jun 7.7 17:02:50 10° WSW 22:18:37 63° SE 02:24:32 10° SSE visible
04 Jun 6.1 13:28:37 10° S 20:35:09 25° ESE 22:10:09 14° ESE visible
